STARLINK-3056, 49159

Orbit data source: Space-Track

STARLINK-3056, 49159 is a payload satellite owned by SpaceX/Seattle (US) in LEO that was launched on Tue, 14 Sep 2021 UTC via an FALCON 9 launch vehicle from the Air Force Western Test Range (AFWTR). Payload-class satellites include a variety of spacecraft equipped with specific instruments for various scientific and technological missions. These include communications satellites like Starlink; space stations such as the ISS; scientific satellites like the Hubble; Earth observation satellites from companies like Planet Labs, Umbra, and HawkEye 360; GPS; miniature CubeSats for education and research; and military/defense satellites.

Loading next visibility...
Identifier
49159, 2021-082AF
Orbit
LEO
Country
Flag of USUS
Related business
Manufacturer
SpaceX/Seattle
Mission
Operational Commercial Communications
Bus & Motor
STARLINK, Unknown motor
Mass
297 kg wet, ~275 kg dry
Launch date (UTC)
2021-09-14 (5 years ago)
Launch vehicle
FALCON 9
Launch site
Air Force Western Test Range (AFWTR)
Object type
Payload
Rocket body
Debris
Shape & HBR
Box + 1 Pan, 10.1 m
Radar Cross Section
13.562 m², Large (>1 m²)

Expand to show TLE details & history
Last TLE update: 1 week ago

TLE from 1 week ago
0 STARLINK-3056
1 49159U 21082AF  26155.07632541  .00000056  00000-0  12471-4 0  9998
2 49159  70.0004  76.6464 0002895 264.0774  96.0055 14.98331824260015
Epoch: 2026-06-04T01:49Z
TLE epoch observation values (Epoch: 2026-06-04T01:49:54.515Z)
Latitude
-0.00004°
Longitude
156.64346°
Altitude
574.685 km
Speed
7.574 km/s
True Right ascension
05h 06m 35s
True Declination
0° 00' 00"
Sunlit
Object was in daylight at epoch
Visualization orbit readout
Latitude
Unknown
Longitude
Unknown
Altitude
Unknown
Speed
Unknown
Apparent Right ascension
Unknown
Apparent Declination
Unknown
Sunlit
N/A
Visualization observer readout
Local Sidereal Time
18:21:30
Azimuth
Unknown
Elevation
Unknown
Doppler factor
Unknown
Orbital elements
Apogee altitude
572.01 km
Perigee altitude
567.987 km
Semi-major axis
6,948.135 km
Eccentricity
0.00029
Inclination
70.0004°
RAAN
76.6464°
Arg. of periapsis
264.0774°
True anomaly
96.03849°
Mean anomaly
96.0055°
Eccentric anomaly
96.022°
Mean motion
3.74749 °/min
Orbital period
96.06 mins
BSTAR
0.000012471
Loading maneuver chart data...
Computing Atmospheric mass density...
Loading historical data...
Loading historical data...
Loading historical data...
Loading historical data...
Loading historical data...
Loading historical data...
Loading historical data...

Documentation

Showing up to 5 results
|